Location: Boiro
(42.6475°N, 8.8834°W)
Time: 19:13:10
(UTC+01:00)

Vanguard 2 - Pass Details

Date: 01 December 2021
Orbit: 553 x 2936 km, 32.9° (Epoch: 21 January)

Event Time Altitude Azimuth Distance (km) Brightness Sun altitude
Rises 18:19:07 0° 260° (W) 3,655 12.8 -3.4°
Reaches altitude 10° 18:21:26 10° 252° (WSW) 2,943 12.4 -3.8°
Maximum altitude 18:28:22 43° 184° (S) 2,013 9.9 -5.0°
Drops below altitude 10° 18:39:33 10° 119° (ESE) 4,702 11.2 -6.8°
Sets 18:44:18 0° 114° (ESE) 6,063 11.7 -7.6°
